User: anonymous   Login
Location: Estes Park
(40.3770°N, 105.5210°W)
Time: 22:01:38
(UTC-06:00)
Language:

ITAMSAT 1 - Orbit

View from above orbital plane
View from above orbital plane
View from above satellite
View from above satellite

Ground track
Ground track

The orbit data is extracted from the following two-line orbital elements,

1 22826U 93061D   18295.19971916  .00000013  00000-0  22895-4 0  9991
2 22826  98.8721 273.7307 0008435 332.4319  27.6415 14.30374538307914
Epoch (UTC): 22 October 2018 04:47:35
Eccentricity: 0.0008435
inclination: 98.8721°
perigee height: 784 km
apogee height: 796 km
right ascension of ascending node: 273.7307°
argument of perigee: 332.4319°
revolutions per day: 14.30374538
mean anomaly at epoch: 27.6415°
orbit number at epoch: 30791

The dashed part of the orbit path shows where the satellite is in the earth's shadow,  

DLR